This is the latest recevied weather packets stored in our database for station/object K5KVN. If no packets are shown the sender has not sent any weather packets the latest 10 day(s).
| Time | Temp. | Humidity | Pressure | Rain* | Wind** | Luminosity | Snow |
|---|---|---|---|---|---|---|---|
| 1788543445 | 35.56° C | 50% | 1016.9 hPa | 0 mm | - | - | - |
| 1788542843 | 35.56° C | 49% | 1017.1 hPa | 0 mm | - | - | - |
| 1788542246 | 35° C | 50% | 1017.2 hPa | 0 mm | - | - | - |
| 1788541699 | 34.44° C | 51% | 1017.2 hPa | 0 mm | - | - | - |
| 1788541039 | 34.44° C | 50% | 1017.3 hPa | 0 mm | - | - | - |
| 1788540439 | 34.44° C | 51% | 1017.3 hPa | 0 mm | - | - | - |
| 1788539838 | 33.89° C | 53% | 1017.4 hPa | 0 mm | - | - | - |
| 1788539296 | 33.33° C | 55% | 1017.3 hPa | 0 mm | - | - | - |
| 1788538635 | 33.33° C | 56% | 1017.4 hPa | 0 mm | - | - | - |
| 1788538035 | 32.78° C | 57% | 1017.3 hPa | 0 mm | - | - | - |
| 1788537434 | 32.78° C | 61% | 1017.5 hPa | 0 mm | - | - | - |
| 1788536835 | 32.22° C | 62% | 1017.7 hPa | 0 mm | - | - | - |
| 1788536296 | 31.67° C | 64% | 1017.7 hPa | 0 mm | - | - | - |
| 1788535634 | 31.67° C | 63% | 1017.7 hPa | 0 mm | - | - | - |
| 1788535033 | 30.56° C | 65% | 1017.7 hPa | 0 mm | - | - | - |
| 1788534434 | 30.56° C | 67% | 1017.7 hPa | 0 mm | - | - | - |
| 1788533833 | 29.44° C | 69% | 1017.5 hPa | 0 mm | - | - | - |
| 1788533234 | 28.89° C | 71% | 1017.5 hPa | 0 mm | - | - | - |
| 1788532634 | 28.33° C | 73% | 1017.7 hPa | 0 mm | - | - | - |
| 1788532032 | 28.33° C | 73% | 1017.7 hPa | 0 mm | - | - | - |
| 1788531431 | 27.78° C | 74% | 1017.7 hPa | 0 mm | - | - | - |
| 1788530891 | 27.78° C | 75% | 1017.7 hPa | 0 mm | - | - | - |
| 1788530232 | 27.22° C | 76% | 1017.4 hPa | 0 mm | - | - | - |
| 1788529629 | 26.67° C | 77% | 1017.5 hPa | 0 mm | - | - | - |
| 1788529028 | 26.11° C | 79% | 1017.4 hPa | 0 mm | - | - | - |
* Rain latest hour (hover to see other rain measurements)
** Current wind speed in m/s (hover to see current wind gust speed)